TimeEDT,TemperatureF,Dew PointF,Humidity,Sea Level PressureIn,VisibilityMPH,Wind Direction,Wind SpeedMPH,Gust SpeedMPH,PrecipitationIn,Events,Conditions,WindDirDegrees,DateUTC
12:53 AM,44.1,30.9,60,29.77,10.0,WNW,6.9,-,N/A,,Overcast,300,2012-11-02 04:53:00
1:53 AM,42.1,32.0,67,29.77,10.0,West,4.6,-,N/A,,Overcast,270,2012-11-02 05:53:00
2:53 AM,42.1,32.0,67,29.77,10.0,Calm,Calm,-,N/A,,Mostly Cloudy,0,2012-11-02 06:53:00
3:53 AM,42.1,32.0,67,29.76,10.0,WSW,5.8,-,N/A,,Mostly Cloudy,240,2012-11-02 07:53:00
4:53 AM,41.0,32.0,70,29.76,10.0,SW,4.6,-,N/A,,Mostly Cloudy,220,2012-11-02 08:53:00
5:53 AM,39.9,32.0,73,29.76,10.0,SSW,3.5,-,N/A,,Mostly Cloudy,210,2012-11-02 09:53:00
6:53 AM,39.9,33.1,77,29.77,10.0,SSE,3.5,-,N/A,,Overcast,160,2012-11-02 10:53:00
7:53 AM,39.9,33.1,77,29.77,10.0,SW,8.1,-,N/A,,Overcast,220,2012-11-02 11:53:00
8:53 AM,42.1,33.1,70,29.79,10.0,WSW,6.9,-,N/A,,Overcast,250,2012-11-02 12:53:00
9:53 AM,43.0,34.0,71,29.81,10.0,West,10.4,-,N/A,,Overcast,270,2012-11-02 13:53:00
10:53 AM,45.0,34.0,65,29.81,10.0,WNW,12.7,-,N/A,,Mostly Cloudy,300,2012-11-02 14:53:00
11:53 AM,45.0,32.0,60,29.82,10.0,WNW,13.8,-,N/A,,Overcast,300,2012-11-02 15:53:00
12:53 PM,45.0,32.0,60,29.82,10.0,NW,10.4,-,N/A,,Overcast,310,2012-11-02 16:53:00
1:53 PM,46.9,30.9,54,29.80,10.0,WNW,17.3,24.2,N/A,,Mostly Cloudy,290,2012-11-02 17:53:00
2:53 PM,46.9,30.9,54,29.81,10.0,WNW,12.7,-,N/A,,Overcast,290,2012-11-02 18:53:00
3:53 PM,46.0,30.9,56,29.83,10.0,WNW,15.0,24.2,N/A,,Overcast,300,2012-11-02 19:53:00
4:53 PM,45.0,32.0,60,29.85,10.0,WNW,11.5,-,N/A,,Overcast,290,2012-11-02 20:53:00
5:53 PM,45.0,32.0,60,29.87,10.0,WNW,15.0,25.3,N/A,,Overcast,290,2012-11-02 21:53:00
6:53 PM,43.0,32.0,65,29.91,10.0,WNW,10.4,-,N/A,,Overcast,300,2012-11-02 22:53:00
7:53 PM,43.0,30.9,62,29.92,10.0,WNW,17.3,25.3,N/A,,Overcast,290,2012-11-02 23:53:00
8:53 PM,43.0,30.9,62,29.93,10.0,WNW,18.4,25.3,N/A,,Overcast,290,2012-11-03 00:53:00
9:53 PM,42.1,30.9,65,29.94,10.0,WNW,19.6,-,N/A,,Mostly Cloudy,300,2012-11-03 01:53:00
10:53 PM,42.1,30.0,62,29.95,10.0,WNW,12.7,-,N/A,,Overcast,300,2012-11-03 02:53:00
11:53 PM,42.1,30.0,62,29.96,10.0,WNW,11.5,-,N/A,,Overcast,290,2012-11-03 03:53:00